Weather in Kamenec-Podolskij

Ukraine / Khmelnitsky District     48°40′39″N   26°34′59″E
temp.,
°C
wind,
m/s
gust,
m/s
humid.,
%
clouds,
%
prec.,
mm/h
press.,
hPa
HPBL,
m
17 august, wed
wed1700:00+18w2286100 0.1 100832
03:00+17w2491100 0.1 1008102
06:00+16wsw239691 0.0 100873
09:00+20wnw338382 0.0 1009495
12:00+21nw4476100 0.1 1009832
15:00+24nnw666195 0.3 10091221
18:00+24nnw566161 0.1 10101227
21:00+20nnw388527 0.1 1010187
18 august, thu
thu1800:00+18nw36915 0.0 1011127
03:00+17nw37930 0.0 1011151
06:00+16nw37962 0.0 1011162
09:00+21nnw457312 0.0 1012477
12:00+26n345876 0.2 10121377
15:00+28n345124 1.6 10111557
18:00+28nne344517 0.0 10111794
21:00+23nnw33609 0.0 101228
19 august, fri
fri1900:00+21n33650 0.0 101236
03:00+19nne22660 0.0 101222
06:00+18nne33700 0.0 101237
09:00+24ne34520 0.0 1013350
12:00+29ne34350 0.0 10121395
15:00+31nne43320 0.0 10121847
18:00+30nne43340 0.0 10111851
21:00+24ne36550 0.0 101281
20 august, sat
sat2000:00+22e22630 0.0 101324
03:00+20e22700 0.0 101320
06:00+19ese227641 0.0 101212
09:00+25ese34560 0.0 1012357
12:00+30se44405 0.0 10121553
15:00+33se33315 0.0 10102144
18:00+33ese33305 0.0 10092294
21:00+26ese2243100 0.0 101111
21 august, sun
sun2100:00+22n347041 0.0 101188
03:00+21ene116689 0.0 101127
06:00+20w117290 0.0 101116
09:00+24nw225941 0.0 1011339
12:00+27sw1248100 0.0 1011664
15:00+28ssw224499 0.0 1010732
18:00+27w235232 0.1 1009275
21:00+21nw368499 0.8 1011109